Regional Weather Roundup
Issued by NWS

Home | Current Version | Previous Version | Text Only | Print | Product List | Glossary Off
Versions: 1 2 3 4 5 6 7 8 9 10 11 12 13 14 15 16 17 18 19 20 21 22 23 24 25 26 27 28 29 30 31 32 33 34 35 36 37 38 39 40 41 42 43 44 45 46 47 48 49 50

000
ASUS43 KLSX 082307
RWRMO

WEATHER SUMMARY FOR MISSOURI
NATIONAL WEATHER SERVICE SPRINGFIELD MO
500 PM CST MON FEB 08 2016

NOTE: "FAIR" INDICATES FEW OR NO CLOUDS BELOW 12,000 FEET WITH NO
       SIGNIFICANT WEATHER AND/OR OBSTRUCTIONS TO VISIBILITY.
       CURRENT SKY AND/OR WEATHER CONDITIONS ARE NOT AVAILABLE FOR
       CHILLICOTHE AND FARMINGTON.

MOZ001>031-035>038-043-044-053-054-090000-
...NORTHERN AND WESTERN MISSOURI...

CITY           SKY/WX    TMP DP  RH WIND       PRES   REMARKS
KANSAS CTY INT MOCLDY    31  15  52 NW25G37   30.07R WCI  17
KANSAS C DTWN  CLOUDY    33  16  49 NW18G29   30.08R WCI  22
LEE`S SUMMIT   CLOUDY    31  15  52 NW21G31   30.07R WCI  18
ST JOSEPH      MOCLDY    31  15  52 NW21G33   30.10R WCI  18
CHILLICOTHE      N/A     26  13  57 NW12G26   30.06R WCI  16
KIRKSVILLE     FLURRIES  21   9  59 NW18G29   29.99R WCI   6

$$
MOZ066>068-077>081-088>096-101>105-090000-
...SOUTHWEST MISSOURI...

CITY           SKY/WX    TMP DP  RH WIND       PRES   REMARKS
SPRINGFIELD    CLOUDY    33  14  45 NW18G30   30.03R WCI  22
JOPLIN         MOCLDY    37  15  40 NW23G40   30.12R WCI  26

$$
MOZ032>034-039>042-045>050-055>058-069>072-090000-
...CENTRAL MISSOURI...

CITY           SKY/WX    TMP DP  RH WIND       PRES   REMARKS
COLUMBIA       CLOUDY    25  13  60 NW25G37   29.99R WCI   9
JEFFERSON CITY CLOUDY    27  13  55 NW22G30   30.02R WCI  13
ROLLA          CLOUDY    25  15  66 W20G25    29.95R WCI  11
SEDALIA        CLOUDY    28  17  63 NW16G26   30.06R WCI  16
WHITEMAN AFB   FLURRIES  29  17  61 NW20G25   30.04R WCI  16
WARRENSBURG    CLOUDY    30  19  64 NW14G24   30.08R WCI  20
OSAGE BEACH    CLOUDY    28  12  50 W13G22    30.02R WCI  18

$$
MOZ051-052-059>065-090000-
...EAST CENTRAL MISSOURI...

CITY           SKY/WX    TMP DP  RH WIND       PRES   REMARKS
ST LOUIS INTL  LGT SNOW  25  16  68 NW17G30   29.94R WCI  12
SPIRIT OF STL  CLOUDY    26  15  63 NW12      29.95R WCI  16
ST CHARLES     LGT SNOW  24  18  77 W14G22    29.94R WCI  12

$$
MOZ072>076-082>087-097>100-106>115-090000-
...SOUTH CENTRAL AND SOUTHEAST MISSOURI...

CITY           SKY/WX    TMP DP  RH WIND       PRES   REMARKS
CAPE GIRARDEAU CLOUDY    31  17  56 NW17G25   29.94R WCI  19
FARMINGTON     MIX PCPN  27  15  61 NW17G23   29.92R WCI  14
POPLAR BLUFF   CLOUDY    35  16  45 NW18G25   29.95R WCI  24
WEST PLAINS    CLOUDY    31  17  56 NW17G24   29.98R WCI  19

$$


USA.gov is the U.S. government's official web portal to all federal, state and local government web resources and services.